SCP
0 -0 -0 -0 -0 0 -0 -0 0 -0 0 -0 0 0 0 0 0 -0 -0 0 0 -0
0 0 0 -0 0 0 0 0 0 0 0 -0 -0 0 0 0 0 0 -0 -0 -0 -0
0 0 0 0 0 0 0 0 0 0 0 -0 0 0 0 0 0 0 0 -0 -0 -0
0 0 0 0 0 0 0 0 0 0 0 0 0 0 0 0 -0 0 0 0 0 0
0 0 0 0 0 0 0 0 0 0 0 0 0 0 0 0 0 0 0 0 0 0
0 0 0 0 0 0 0 0 0 0 0 0 0 0 0 0 0 0 0 0 0 0
0 0 0 0 0 0 0 0 0 0 0 0 0 0 0 0 0 0 0 0 0 0
0 0 0 0 0 0 0 0 0 0 0 0 0 0 0 0 0 0 0 0 0 0
0 0 0 0 0 0 0 0 0 0 0 0 0 0 0 0 0 0 0 0 0 0
0 0 0 0 0 0 0 0 0 0 0 0 0 0 0 0 0 0 0 0 0 0
0 0 0 0 0 0 0 0 0 0 0 0 0 0 0 0 0 0 0 0 0 0
0 0 0 0 0 0 0 0 0 0 0 0 0 0 0 0 0 0 0 0 0 0
0 0 0 0 0 0 0 0 0 0 0 0 -0 0 0 0 0 0 0 0 0 0
0 0 0 0 0 0 0 0 0 0 0 0 0 0 0 0 0 0 0 0 0 0
Wind_Speed_500mb
48 46 43 38 32 28 24 20 22 20 20 14 12 8 13 21 14 12 12 12 12 15
54 51 46 41 35 31 28 26 27 27 24 21 22 15 15 24 16 11 14 10 14 16
52 53 49 44 41 36 32 32 31 28 26 25 25 25 22 21 21 17 13 14 18 16
47 49 50 51 47 44 40 37 39 39 38 36 33 33 30 29 28 26 20 18 19 17
45 45 49 51 51 49 50 48 47 42 41 38 31 31 34 35 32 28 20 21 26 25
43 51 47 50 51 49 51 51 48 48 43 38 31 34 37 36 35 30 24 26 25 22
60 53 42 42 48 49 50 51 52 50 45 43 38 37 36 36 35 35 29 29 26 27
53 58 59 48 42 42 53 49 52 53 53 47 45 43 39 41 40 38 35 35 29 29
38 43 50 52 55 55 48 43 50 52 55 56 53 46 44 46 49 47 43 41 34 34
34 37 41 43 47 52 58 52 42 48 58 59 62 57 50 46 48 48 48 42 39 38
42 42 41 40 38 46 53 55 44 63 72 71 64 59 53 51 48 51 48 44 43 40
40 37 37 38 40 43 48 52 55 66 73 78 73 64 54 52 51 51 50 48 48 48
43 40 42 42 45 51 55 56 58 62 61 64 72 58 55 54 52 53 51 49 48 52
43 46 40 43 41 50 56 56 58 60 58 69 69 70 57 55 56 56 53 53 53 51
Wind_Direction_500mb
227 232 236 241 244 244 252 254 244 257 255 254 264 261 252 231 240 262 245 256 249 251
232 234 239 240 246 248 246 244 249 260 258 259 251 268 266 237 240 237 242 256 254 264
237 237 240 240 245 247 250 253 255 259 252 258 257 254 250 232 233 243 251 261 267 261
245 246 245 246 249 253 254 256 257 262 262 258 265 256 246 244 243 243 259 268 250 237
248 249 250 251 253 254 257 259 258 262 264 261 257 241 245 247 254 244 257 261 249 240
253 250 254 258 255 257 260 260 261 257 257 256 253 252 252 246 248 245 257 256 251 245
257 253 255 258 261 266 260 261 260 259 253 253 253 256 243 242 248 250 254 250 252 239
269 261 256 256 259 263 259 260 259 258 254 251 253 249 249 243 246 256 259 251 251 247
277 271 262 257 253 269 259 258 255 250 252 252 251 247 250 247 252 255 252 253 252 247
268 270 269 264 255 249 254 258 241 256 251 248 246 241 243 249 249 250 249 248 246 244
266 266 263 258 248 249 249 247 251 233 245 248 244 239 234 240 245 248 248 244 241 242
269 262 259 256 251 249 250 252 262 244 238 248 236 239 235 234 242 247 247 245 243 240
269 264 260 258 254 255 255 256 259 262 262 232 226 235 231 234 239 244 243 240 240 240
269 266 260 266 261 247 249 249 249 251 252 229 236 229 237 236 239 239 241 240 241 239
Wind_Speed_850mb
48 46 43 38 32 28 24 20 22 20 20 14 12 8 13 21 14 12 12 12 12 15
54 51 46 41 35 31 28 26 27 27 24 21 22 15 15 24 16 11 14 10 14 16
52 53 49 44 41 36 32 32 31 28 26 25 25 25 22 21 21 17 13 14 18 16
47 49 50 51 47 44 40 37 39 39 38 36 33 33 30 29 28 26 20 18 19 17
45 45 49 51 51 49 50 48 47 42 41 38 31 31 34 35 32 28 20 21 26 25
43 51 47 50 51 49 51 51 48 48 43 38 31 34 37 36 35 30 24 26 25 22
60 53 42 42 48 49 50 51 52 50 45 43 38 37 36 36 35 35 29 29 26 27
53 58 59 48 42 42 53 49 52 53 53 47 45 43 39 41 40 38 35 35 29 29
38 43 50 52 55 55 48 43 50 52 55 56 53 46 44 46 49 47 43 41 34 34
34 37 41 43 47 52 58 52 42 48 58 59 62 57 50 46 48 48 48 42 39 38
42 42 41 40 38 46 53 55 44 63 72 71 64 59 53 51 48 51 48 44 43 40
40 37 37 38 40 43 48 52 55 66 73 78 73 64 54 52 51 51 50 48 48 48
43 40 42 42 45 51 55 56 58 62 61 64 72 58 55 54 52 53 51 49 48 52
43 46 40 43 41 50 56 56 58 60 58 69 69 70 57 55 56 56 53 53 53 51
Wind_Direction_850mb
227 232 236 241 244 244 252 254 244 257 255 254 264 261 252 231 240 262 245 256 249 251
232 234 239 240 246 248 246 244 249 260 258 259 251 268 266 237 240 237 242 256 254 264
237 237 240 240 245 247 250 253 255 259 252 258 257 254 250 232 233 243 251 261 267 261
245 246 245 246 249 253 254 256 257 262 262 258 265 256 246 244 243 243 259 268 250 237
248 249 250 251 253 254 257 259 258 262 264 261 257 241 245 247 254 244 257 261 249 240
253 250 254 258 255 257 260 260 261 257 257 256 253 252 252 246 248 245 257 256 251 245
257 253 255 258 261 266 260 261 260 259 253 253 253 256 243 242 248 250 254 250 252 239
269 261 256 256 259 263 259 260 259 258 254 251 253 249 249 243 246 256 259 251 251 247
277 271 262 257 253 269 259 258 255 250 252 252 251 247 250 247 252 255 252 253 252 247
268 270 269 264 255 249 254 258 241 256 251 248 246 241 243 249 249 250 249 248 246 244
266 266 263 258 248 249 249 247 251 233 245 248 244 239 234 240 245 248 248 244 241 242
269 262 259 256 251 249 250 252 262 244 238 248 236 239 235 234 242 247 247 245 243 240
269 264 260 258 254 255 255 256 259 262 262 232 226 235 231 234 239 244 243 240 240 240
269 266 260 266 261 247 249 249 249 251 252 229 236 229 237 236 239 239 241 240 241 239